Вернуться в каталог

THORAD AGENA D DEB

АктивенPO
NORAD 4856·DEBRIS·🇺🇸 United States

Запущен Apr 8, 1970 с Vandenberg Space Force Base

Loading…

Ближайшие Пролёты

TLE

Source: Space-Track
1 04856U 70025EL  26229.84091476  .00000351  00000-0  20203-3 0  9996
2 04856  99.7444 358.9899 0153171 151.7508 209.2075 14.10579526879108

Отслеживайте THORAD AGENA D DEB в реальном времени с AllMySat

Download on the App Store